This demonstration page uses our WeatherBlox Daily Observations layout. Learn more.

Left ArrowRight Arrow

Hourly Observations for December 17, 2021

Temp ( °F °C ) Dew Point ( °F °C ) Humidity (%) Winds ( mph kmh ) Pressure ( in mb ) Visibility ( mi km ) Precip ( " mm )
12:56 am 00:56 Clear 28 -2.2 21 -6.1 75 75 SE 9 15 30.02 1017 10 16 0.00 0.00
1:56 am 01:56 Clear 28 -2.2 21 -6.1 75 75 SSE 12 19 30.00 1016 10 16 0.00 0.00
2:56 am 02:56 Clear 29 -1.7 21 -6.1 72 72 SE 10 17 29.99 1016 10 16 0.00 0.00
3:56 am 03:56 Clear 29 -1.7 22 -5.6 75 75 ESE 7 11 29.98 1015 10 16 0.00 0.00
4:56 am 04:56 Clear 28 -2.2 22 -5.6 78 78 E 9 15 29.98 1015 10 16 0.00 0.00
9:56 am 09:56 Sunny 28 -2.2 23 -5 81 81 ENE 3 6 30.02 1017 10 16 0.00 0.00
10:56 am 10:56 Sunny 32 0 24 -4.4 73 73 Calm 30.02 1017 10 16 0.00 0.00
11:56 am 11:56 Sunny 36 2.2 25 -3.9 64 64 VRB 7 11 29.99 1016 10 16 0.00 0.00
12:56 pm 12:56 Sunny 40 4.4 26 -3.3 58 58 NW 7 11 29.96 1015 10 16 0.00 0.00
1:56 pm 13:56 Sunny 41 5 26 -3.3 55 55 NNW 7 11 29.96 1014 10 16 0.00 0.00
2:56 pm 14:56 Sunny 42 5.6 25 -3.9 51 51 NNW 8 13 29.95 1014 10 16 0.00 0.00
3:56 pm 15:56 Sunny 41 5 25 -3.9 53 53 N 8 13 29.98 1015 10 16 0.00 0.00
4:56 pm 16:56 Sunny 35 1.7 25 -3.9 67 67 NE 7 11 30.02 1017 10 16 0.00 0.00
5:56 pm 17:56 Clear 28 -2.2 24 -4.4 85 85 E 7 11 30.06 1018 10 16 0.00 0.00
6:56 pm 18:56 Clear 30 -1.1 25 -3.9 82 82 SE 3 6 30.09 1019 10 16 0.00 0.00
7:56 pm 19:56 Clear 27 -2.8 23 -5 85 85 NNW 7 11 30.14 1021 10 16 0.00 0.00
8:56 pm 20:56 Clear 25 -3.9 21 -6.1 85 85 N 23 37 30.20 1023 10 16 0.00 0.00
9:53 pm 21:53 Mostly Cloudy 25 -4 19 -7 80 80 NNW 25 41 30.29 1026 10 16 0.00 0.00
9:56 pm 21:56 Mostly Cloudy 24 -4.4 20 -6.7 84 84 NNW 24 39 30.23 1024 10 16 0.00 0.00
10:56 pm 22:56 Cloudy 24 -4.4 20 -6.7 84 84 NNW 23 37 30.25 1025 10 16 0.00 0.00
11:19 pm 23:19 Cloudy 25 -4 19 -7 80 80 NNW 21 33 30.34 1027 10 16 0.00 0.00
11:56 pm 23:56 Cloudy 25 -3.9 19 -7.2 78 78 NNW 23 37 30.28 1025 10 16 0.00 0.00

Powered by AerisWeather